星链-3753 (STARLINK-3753 )

导读 | 豆包AI

STARLINK-3753是美国太空探索技术公司Starlink卫星互联网项目的成员,于2022年4月21日发射入轨,属于星链组网卫星。它依托低轨轨道运行,旨在为全球提供高速低延迟互联网覆盖服务,补齐偏远地区网络覆盖短板,目前已随星链星座整体推进,参与全球卫星互联网服务组网运营。

基本信息
目录编号:
52292
目录名称:
STARLINK-3753
国际标识:
2022-041AH
轨道中心:
EARTH
卫星名称:
星链-3753
卫星全名:
星链-3753 (STARLINK-3753 )
卫星状态:
在轨 (已飞行1423 天)
发射日期:
2022-04-21 UTC
国别 :
美国 (US)
星等 :
--
轨道信息
数据来源 国际轨道数据 AOE轨道数据
星历时间 2026-03-14T17:16:30+0800
14小时前
查看轨道信息
2026-03-09T06:00:00+0800
6天前
查看轨道信息
半长轴 6917.856km 6917.89km
偏心率 0.0001222 0.000107
轨道倾角 53.217° 53.216°
近地点辐角 82.933° 98.486°
升交点赤经 78.035° 102.590°
平近点角 277.180° 54.574°
近地点 538.873km 539.012km
远地点 540.565km 540.494km
周期 95.437分钟 95.438分钟
每日圈数 15.088482 15.08837
详细信息
固有亮度:
5
最大亮度:
2.5
卫星平台:
Starlink v1.5
覆盖范围:
全球
运营商:
太空探索技术公司
运营商所在国:
美国
制造商(研发单位):
太空探索技术公司
制造商所在国:
美国
使用方式:
暂无
卫星简介
星链(Starlink)计划是由太空探索技术公司(SpaceX)提出的一个巨型低轨卫星互联网星座项目,计划在2019年至2024年间在太空搭建由约1.2万颗卫星组成的“星链”网络,其中1584颗将部署在地球上空550千米处的近地轨道,并从2020年开始工作。该卫星仍在工作。
2D轨道图
3D轨道图
轨道高度分析图
轨道倾角分析图
轨道综合分析图
查看轨道综合分析图